Location: Kampernieuwstad
(52.5135°N, 5.8742°E)
Time: 04:53:07
(UTC+00:00)

Cosmos 2058 Rocket - Pass Details

Date: 15 May 2026
Orbit: 604 x 632 km, 82.5° (Epoch: 6 June)

Event Time Altitude Azimuth Distance (km) Brightness Sun altitude
Exits shadow 22:30:59 25° 207° (SSW) 1,226 4.2 -17.2°
Maximum altitude 22:33:23 66° 283° (WNW) 669 3.3 -17.3°
Drops below altitude 10° 22:37:42 10° 6° (N) 1,966 6.7 -17.4°
Sets 22:39:57 0° 10° (N) 2,873 7.7 -17.5°
